Time,TemperatureF,DewpointF,PressureIn,WindDirection,WindDirectionDegrees,WindSpeedMPH,WindSpeedGustMPH,Humidity,HourlyPrecipIn,Conditions,Clouds,dailyrainin,SoftwareType,DateUTC
2013-09-12 00:03:00,59.8,48.4,30.16,NW,314,0.0,0.0,66,0.00,,CLR,0.00,VWS V14.00,2013-09-12 05:03:00,
2013-09-12 00:08:00,59.7,48.7,30.16,NW,314,0.0,0.0,67,0.00,,CLR,0.00,VWS V14.00,2013-09-12 05:08:00,
2013-09-12 00:13:00,59.6,48.6,30.16,NW,314,0.0,0.0,67,0.00,,CLR,0.00,VWS V14.00,2013-09-12 05:13:00,
2013-09-12 00:18:00,59.5,48.5,30.16,NW,314,0.0,0.0,67,0.00,,CLR,0.00,VWS V14.00,2013-09-12 05:18:00,
2013-09-12 00:23:00,59.3,48.4,30.16,NW,314,0.0,0.0,67,0.00,,CLR,0.00,VWS V14.00,2013-09-12 05:23:00,
2013-09-12 00:28:00,59.1,48.6,30.16,NW,314,0.0,0.0,68,0.00,,CLR,0.00,VWS V14.00,2013-09-12 05:28:00,
2013-09-12 00:33:00,58.9,48.4,30.16,NW,314,0.0,0.0,68,0.00,,CLR,0.00,VWS V14.00,2013-09-12 05:33:00,
2013-09-12 00:38:00,58.7,48.2,30.16,NW,314,0.0,0.0,68,0.00,,CLR,0.00,VWS V14.00,2013-09-12 05:38:00,
2013-09-12 00:43:00,58.4,48.3,30.16,NW,314,0.0,0.0,69,0.00,,CLR,0.00,VWS V14.00,2013-09-12 05:43:00,
2013-09-12 00:48:00,58.1,48.0,30.17,NW,314,0.0,0.0,69,0.00,,CLR,0.00,VWS V14.00,2013-09-12 05:48:00,
2013-09-12 00:53:00,57.8,48.1,30.17,NW,314,0.0,0.0,70,0.00,,CLR,0.00,VWS V14.00,2013-09-12 05:53:00,
2013-09-12 00:58:00,57.4,48.1,30.17,NW,314,0.0,0.0,71,0.00,,CLR,0.00,VWS V14.00,2013-09-12 05:58:00,
2013-09-12 01:03:00,57.1,47.8,30.17,NW,314,0.0,0.0,71,0.00,,CLR,0.00,VWS V14.00,2013-09-12 06:03:00,
2013-09-12 01:08:00,56.8,47.9,30.17,NW,314,0.0,0.0,72,0.00,,CLR,0.00,VWS V14.00,2013-09-12 06:08:00,
2013-09-12 01:13:00,56.5,47.6,30.17,NW,314,0.0,0.0,72,0.00,,CLR,0.00,VWS V14.00,2013-09-12 06:13:00,
2013-09-12 01:18:00,56.3,47.8,30.17,NW,314,0.0,0.0,73,0.00,,CLR,0.00,VWS V14.00,2013-09-12 06:18:00,
2013-09-12 01:23:00,56.0,47.5,30.17,NW,314,0.0,0.0,73,0.00,,CLR,0.00,VWS V14.00,2013-09-12 06:23:00,
2013-09-12 01:28:00,55.9,47.7,30.17,NW,314,0.0,0.0,74,0.00,,CLR,0.00,VWS V14.00,2013-09-12 06:28:00,
2013-09-12 01:33:00,55.7,47.5,30.17,NW,314,0.0,0.0,74,0.00,,CLR,0.00,VWS V14.00,2013-09-12 06:33:00,
2013-09-12 01:38:00,55.5,47.7,30.17,NW,314,0.0,0.0,75,0.00,,CLR,0.00,VWS V14.00,2013-09-12 06:38:00,
2013-09-12 01:43:00,55.4,47.6,30.17,NW,314,0.0,0.0,75,0.00,,CLR,0.00,VWS V14.00,2013-09-12 06:43:00,
2013-09-12 01:48:00,55.4,48.0,30.17,NW,314,0.0,0.0,76,0.00,,CLR,0.00,VWS V14.00,2013-09-12 06:48:00,
2013-09-12 01:53:00,55.3,47.9,30.17,NW,314,0.0,0.0,76,0.00,,CLR,0.00,VWS V14.00,2013-09-12 06:53:00,
2013-09-12 01:58:00,55.2,47.8,30.17,NW,314,0.0,0.0,76,0.00,,CLR,0.00,VWS V14.00,2013-09-12 06:58:00,
2013-09-12 02:03:00,55.0,47.6,30.18,NW,314,0.0,0.0,76,0.00,,CLR,0.00,VWS V14.00,2013-09-12 07:03:00,
2013-09-12 02:08:00,54.8,47.4,30.18,NW,314,0.0,0.0,76,0.00,,CLR,0.00,VWS V14.00,2013-09-12 07:08:00,
2013-09-12 02:13:00,54.7,47.6,30.18,NW,314,0.0,0.0,77,0.00,,CLR,0.00,VWS V14.00,2013-09-12 07:13:00,
2013-09-12 02:18:00,54.6,47.5,30.18,NW,314,0.0,0.0,77,0.00,,CLR,0.00,VWS V14.00,2013-09-12 07:18:00,
2013-09-12 02:23:00,54.5,47.5,30.18,NW,314,0.0,0.0,77,0.00,,CLR,0.00,VWS V14.00,2013-09-12 07:23:00,
2013-09-12 02:28:00,54.4,47.7,30.18,NW,314,0.0,0.0,78,0.00,,CLR,0.00,VWS V14.00,2013-09-12 07:28:00,
2013-09-12 02:33:00,54.4,47.7,30.18,NW,314,0.0,0.0,78,0.00,,CLR,0.00,VWS V14.00,2013-09-12 07:33:00,
2013-09-12 02:38:00,54.4,47.7,30.18,NW,314,0.0,0.0,78,0.00,,CLR,0.00,VWS V14.00,2013-09-12 07:38:00,
2013-09-12 02:43:00,54.4,47.7,30.18,NW,314,0.0,0.0,78,0.00,,CLR,0.00,VWS V14.00,2013-09-12 07:43:00,
2013-09-12 02:48:00,54.3,47.6,30.19,NW,314,0.0,0.0,78,0.00,,CLR,0.00,VWS V14.00,2013-09-12 07:48:00,
2013-09-12 02:53:00,54.2,47.5,30.19,NW,314,0.0,0.0,78,0.00,,CLR,0.00,VWS V14.00,2013-09-12 07:53:00,
2013-09-12 02:58:00,54.2,47.5,30.19,NW,314,0.0,0.0,78,0.00,,CLR,0.00,VWS V14.00,2013-09-12 07:58:00,
2013-09-12 03:04:00,54.2,47.5,30.19,NW,314,0.0,0.0,78,0.00,,FEW080,0.00,VWS V14.00,2013-09-12 08:04:00,
2013-09-12 03:09:00,54.1,47.4,30.19,NW,314,0.0,0.0,78,0.00,,FEW080,0.00,VWS V14.00,2013-09-12 08:09:00,
2013-09-12 03:14:00,53.9,47.5,30.19,NW,314,0.0,0.0,79,0.00,,FEW080,0.00,VWS V14.00,2013-09-12 08:14:00,
2013-09-12 03:19:00,53.9,47.5,30.19,NW,314,0.0,0.0,79,0.00,,FEW080,0.00,VWS V14.00,2013-09-12 08:19:00,
2013-09-12 03:24:00,53.9,47.5,30.19,NW,314,0.0,0.0,79,0.00,,FEW080,0.00,VWS V14.00,2013-09-12 08:24:00,
2013-09-12 03:29:00,53.9,47.5,30.19,NW,314,0.0,0.0,79,0.00,,FEW080,0.00,VWS V14.00,2013-09-12 08:29:00,
2013-09-12 03:34:00,53.9,47.9,30.19,NW,314,0.0,0.0,80,0.00,,FEW080,0.00,VWS V14.00,2013-09-12 08:34:00,
2013-09-12 03:39:00,53.9,47.9,30.19,NW,314,0.0,0.0,80,0.00,,FEW080,0.00,VWS V14.00,2013-09-12 08:39:00,
2013-09-12 03:44:00,53.7,47.3,30.19,NW,314,0.0,0.0,79,0.00,,FEW080,0.00,VWS V14.00,2013-09-12 08:44:00,
2013-09-12 03:49:00,53.6,47.3,30.19,NW,314,0.0,0.0,79,0.00,,FEW080,0.00,VWS V14.00,2013-09-12 08:49:00,
2013-09-12 03:54:00,53.5,47.2,30.19,NW,314,0.0,0.0,79,0.00,,FEW080,0.00,VWS V14.00,2013-09-12 08:54:00,
2013-09-12 03:59:00,53.4,47.4,30.19,NW,314,0.0,0.0,80,0.00,,FEW080,0.00,VWS V14.00,2013-09-12 08:59:00,
2013-09-12 04:04:00,53.2,47.2,30.19,NW,314,0.0,0.0,80,0.00,,CLR,0.00,VWS V14.00,2013-09-12 09:04:00,
2013-09-12 04:09:00,53.1,47.1,30.19,NW,314,0.0,0.0,80,0.00,,CLR,0.00,VWS V14.00,2013-09-12 09:09:00,
2013-09-12 04:14:00,52.9,46.9,30.19,NW,314,0.0,0.0,80,0.00,,CLR,0.00,VWS V14.00,2013-09-12 09:14:00,
2013-09-12 04:19:00,52.8,47.1,30.19,NW,314,0.0,0.0,81,0.00,,CLR,0.00,VWS V14.00,2013-09-12 09:19:00,
2013-09-12 04:24:00,52.7,47.0,30.20,NW,314,0.0,0.0,81,0.00,,CLR,0.00,VWS V14.00,2013-09-12 09:24:00,
2013-09-12 04:29:00,52.6,47.3,30.20,NW,314,0.0,0.0,82,0.00,,CLR,0.00,VWS V14.00,2013-09-12 09:29:00,
2013-09-12 04:34:00,52.6,47.3,30.20,NW,314,0.0,0.0,82,0.00,,CLR,0.00,VWS V14.00,2013-09-12 09:34:00,
2013-09-12 04:39:00,52.6,47.3,30.20,NW,314,0.0,0.0,82,0.00,,CLR,0.00,VWS V14.00,2013-09-12 09:39:00,
2013-09-12 04:44:00,52.5,47.2,30.20,NW,314,0.0,0.0,82,0.00,,CLR,0.00,VWS V14.00,2013-09-12 09:44:00,
2013-09-12 04:49:00,52.4,47.1,30.20,NW,314,0.0,0.0,82,0.00,,CLR,0.00,VWS V14.00,2013-09-12 09:49:00,
2013-09-12 04:54:00,52.3,47.0,30.20,NW,314,0.0,0.0,82,0.00,,CLR,0.00,VWS V14.00,2013-09-12 09:54:00,
2013-09-12 04:59:00,52.3,47.3,30.20,NW,314,0.0,0.0,83,0.00,,CLR,0.00,VWS V14.00,2013-09-12 09:59:00,
2013-09-12 05:04:00,52.3,47.0,30.20,NW,314,0.0,0.0,82,0.00,,CLR,0.00,VWS V14.00,2013-09-12 10:04:00,
2013-09-12 05:09:00,52.3,47.3,30.21,NW,314,0.0,0.0,83,0.00,,CLR,0.00,VWS V14.00,2013-09-12 10:09:00,
2013-09-12 05:14:00,52.3,47.3,30.21,NW,314,0.0,0.0,83,0.00,,CLR,0.00,VWS V14.00,2013-09-12 10:14:00,
2013-09-12 05:19:00,52.2,47.2,30.21,NW,314,0.0,0.0,83,0.00,,CLR,0.00,VWS V14.00,2013-09-12 10:19:00,
2013-09-12 05:24:00,52.2,47.2,30.21,NW,314,0.0,0.0,83,0.00,,CLR,0.00,VWS V14.00,2013-09-12 10:24:00,
2013-09-12 05:29:00,52.1,47.1,30.22,NW,314,0.0,0.0,83,0.00,,CLR,0.00,VWS V14.00,2013-09-12 10:29:00,
2013-09-12 05:34:00,52.0,47.0,30.22,NW,314,0.0,0.0,83,0.00,,CLR,0.00,VWS V14.00,2013-09-12 10:34:00,
2013-09-12 05:39:00,52.0,47.0,30.22,NW,314,0.0,0.0,83,0.00,,CLR,0.00,VWS V14.00,2013-09-12 10:39:00,
2013-09-12 05:44:00,51.9,46.9,30.22,NW,314,0.0,0.0,83,0.00,,CLR,0.00,VWS V14.00,2013-09-12 10:44:00,
2013-09-12 05:49:00,51.9,46.9,30.22,NW,314,0.0,0.0,83,0.00,,CLR,0.00,VWS V14.00,2013-09-12 10:49:00,
2013-09-12 05:54:00,51.9,46.9,30.22,NW,314,0.0,0.0,83,0.00,,CLR,0.00,VWS V14.00,2013-09-12 10:54:00,
2013-09-12 05:59:00,51.9,47.2,30.22,NW,314,0.0,0.0,84,0.00,,CLR,0.00,VWS V14.00,2013-09-12 10:59:00,
2013-09-12 06:04:00,51.8,46.8,30.22,NW,315,0.0,0.0,83,0.00,,FEW070,0.00,VWS V14.00,2013-09-12 11:04:00,
2013-09-12 06:09:00,51.8,47.1,30.23,NW,315,0.0,0.0,84,0.00,,FEW070,0.00,VWS V14.00,2013-09-12 11:09:00,
2013-09-12 06:15:00,51.8,47.1,30.23,NW,315,0.0,0.0,84,0.00,,FEW070,0.00,VWS V14.00,2013-09-12 11:15:00,
2013-09-12 06:20:00,51.8,47.1,30.23,NW,315,0.0,0.0,84,0.00,,FEW070,0.00,VWS V14.00,2013-09-12 11:20:00,
2013-09-12 06:25:00,51.7,47.0,30.23,NW,315,0.0,0.0,84,0.00,,FEW070,0.00,VWS V14.00,2013-09-12 11:25:00,
2013-09-12 06:30:00,51.8,47.1,30.23,NW,315,0.0,0.0,84,0.00,,FEW070,0.00,VWS V14.00,2013-09-12 11:30:00,
2013-09-12 06:35:00,51.7,47.0,30.23,NW,315,0.0,0.0,84,0.00,,FEW070,0.00,VWS V14.00,2013-09-12 11:35:00,
2013-09-12 06:40:00,51.7,47.3,30.23,NW,315,0.0,0.0,85,0.00,,FEW070,0.00,VWS V14.00,2013-09-12 11:40:00,
2013-09-12 06:45:00,51.7,47.3,30.24,NW,315,0.0,0.0,85,0.00,,FEW070,0.00,VWS V14.00,2013-09-12 11:45:00,
2013-09-12 06:50:00,51.7,47.3,30.24,NW,315,0.0,0.0,85,0.00,,FEW070,0.00,VWS V14.00,2013-09-12 11:50:00,
2013-09-12 06:55:00,51.6,47.2,30.24,NW,315,0.0,0.0,85,0.00,,FEW070,0.00,VWS V14.00,2013-09-12 11:55:00,
2013-09-12 07:00:00,51.6,47.2,30.24,NW,315,0.0,0.0,85,0.00,,FEW070,0.00,VWS V14.00,2013-09-12 12:00:00,
2013-09-12 07:05:00,51.5,47.2,30.24,NW,315,0.0,0.0,85,0.00,,BKN070,0.00,VWS V14.00,2013-09-12 12:05:00,
2013-09-12 07:10:00,51.5,47.5,30.24,NW,315,0.0,0.0,86,0.00,,BKN070,0.00,VWS V14.00,2013-09-12 12:10:00,
2013-09-12 07:15:00,51.5,47.5,30.24,NW,315,0.0,0.0,86,0.00,,BKN070,0.00,VWS V14.00,2013-09-12 12:15:00,
2013-09-12 07:20:00,51.5,47.5,30.24,NW,315,0.0,0.0,86,0.00,,BKN070,0.00,VWS V14.00,2013-09-12 12:20:00,
2013-09-12 07:25:00,51.5,47.5,30.24,NW,315,0.0,0.0,86,0.00,,BKN070,0.00,VWS V14.00,2013-09-12 12:25:00,
2013-09-12 07:30:00,51.4,47.4,30.24,NW,315,0.0,0.0,86,0.00,,BKN070,0.00,VWS V14.00,2013-09-12 12:30:00,
2013-09-12 07:35:00,51.5,47.5,30.24,NW,315,0.0,0.0,86,0.00,,BKN070,0.00,VWS V14.00,2013-09-12 12:35:00,
2013-09-12 07:40:00,51.5,47.8,30.25,NW,315,0.0,0.0,87,0.00,,BKN070,0.00,VWS V14.00,2013-09-12 12:40:00,
2013-09-12 07:45:00,51.6,47.6,30.25,NW,315,0.0,0.0,86,0.00,,BKN070,0.00,VWS V14.00,2013-09-12 12:45:00,
2013-09-12 07:50:00,51.7,48.0,30.25,NW,315,0.0,0.0,87,0.00,,BKN070,0.00,VWS V14.00,2013-09-12 12:50:00,
2013-09-12 07:55:00,51.9,48.2,30.25,NW,315,0.0,0.0,87,0.00,,BKN070,0.00,VWS V14.00,2013-09-12 12:55:00,
2013-09-12 08:00:00,52.2,48.5,30.26,NW,315,0.0,0.0,87,0.00,,BKN070,0.00,VWS V14.00,2013-09-12 13:00:00,
2013-09-12 08:05:00,52.4,48.7,30.26,NW,315,0.0,0.0,87,0.00,,CLR,0.00,VWS V14.00,2013-09-12 13:05:00,
2013-09-12 08:10:00,52.7,48.6,30.26,NW,315,0.0,0.0,86,0.00,,CLR,0.00,VWS V14.00,2013-09-12 13:10:00,
2013-09-12 08:15:00,52.9,48.8,30.26,NW,315,0.0,0.0,86,0.00,,CLR,0.00,VWS V14.00,2013-09-12 13:15:00,
2013-09-12 08:20:00,53.2,49.1,30.26,NW,315,0.0,0.0,86,0.00,,CLR,0.00,VWS V14.00,2013-09-12 13:20:00,
2013-09-12 08:25:00,53.5,49.7,30.26,NW,315,0.0,0.0,87,0.00,,CLR,0.00,VWS V14.00,2013-09-12 13:25:00,
2013-09-12 08:30:00,53.8,49.7,30.27,NW,316,0.0,0.0,86,0.00,,CLR,0.00,VWS V14.00,2013-09-12 13:30:00,
2013-09-12 08:35:00,54.2,50.1,30.27,NW,317,0.0,0.0,86,0.00,,CLR,0.00,VWS V14.00,2013-09-12 13:35:00,
2013-09-12 08:40:00,54.5,50.1,30.27,NW,317,0.0,0.0,85,0.00,,CLR,0.00,VWS V14.00,2013-09-12 13:40:00,
2013-09-12 08:45:00,54.8,50.4,30.27,NW,317,0.0,0.0,85,0.00,,CLR,0.00,VWS V14.00,2013-09-12 13:45:00,
2013-09-12 08:50:00,55.1,50.7,30.27,NW,317,0.0,0.0,85,0.00,,CLR,0.00,VWS V14.00,2013-09-12 13:50:00,
2013-09-12 08:55:00,55.5,50.8,30.27,NW,317,0.0,0.0,84,0.00,,CLR,0.00,VWS V14.00,2013-09-12 13:55:00,
2013-09-12 09:00:00,55.9,51.1,30.27,NW,317,0.0,0.0,84,0.00,,CLR,0.00,VWS V14.00,2013-09-12 14:00:00,
2013-09-12 09:05:00,56.3,51.2,30.27,NW,320,0.0,0.0,83,0.00,,CLR,0.00,VWS V14.00,2013-09-12 14:05:00,
2013-09-12 09:10:00,56.5,51.1,30.28,NNW,334,0.0,0.0,82,0.00,,CLR,0.00,VWS V14.00,2013-09-12 14:10:00,
2013-09-12 09:15:00,56.8,51.4,30.28,NNW,334,0.0,0.0,82,0.00,,CLR,0.00,VWS V14.00,2013-09-12 14:15:00,
2013-09-12 09:20:00,57.1,51.3,30.28,NNW,335,0.0,0.0,81,0.00,,CLR,0.00,VWS V14.00,2013-09-12 14:20:00,
2013-09-12 09:25:00,57.5,51.7,30.28,NNW,346,0.0,0.0,81,0.00,,CLR,0.00,VWS V14.00,2013-09-12 14:25:00,
2013-09-12 09:30:00,57.9,51.8,30.28,North,358,0.0,0.0,80,0.00,,CLR,0.00,VWS V14.00,2013-09-12 14:30:00,
2013-09-12 09:35:00,58.3,52.2,30.28,North,359,0.0,0.0,80,0.00,,CLR,0.00,VWS V14.00,2013-09-12 14:35:00,
2013-09-12 09:40:00,58.6,52.1,30.29,North,359,0.0,0.0,79,0.00,,CLR,0.00,VWS V14.00,2013-09-12 14:40:00,
2013-09-12 09:45:00,58.8,52.3,30.29,North,0,0.0,0.0,79,0.00,,CLR,0.00,VWS V14.00,2013-09-12 14:45:00,
2013-09-12 09:50:00,59.1,52.3,30.29,North,0,0.0,0.0,78,0.00,,CLR,0.00,VWS V14.00,2013-09-12 14:50:00,
2013-09-12 09:55:00,59.3,52.1,30.29,North,0,0.0,0.0,77,0.00,,CLR,0.00,VWS V14.00,2013-09-12 14:55:00,
2013-09-12 10:00:00,59.4,52.5,30.29,North,1,0.0,0.0,78,0.00,,CLR,0.00,VWS V14.00,2013-09-12 15:00:00,
2013-09-12 10:05:00,59.4,52.5,30.29,North,0,0.0,0.0,78,0.00,,CLR,0.00,VWS V14.00,2013-09-12 15:05:00,
2013-09-12 10:10:00,59.6,52.7,30.29,North,0,0.0,0.0,78,0.00,,CLR,0.00,VWS V14.00,2013-09-12 15:10:00,
2013-09-12 10:16:00,59.9,52.7,30.29,North,0,0.0,0.0,77,0.00,,CLR,0.00,VWS V14.00,2013-09-12 15:16:00,
2013-09-12 10:21:00,60.4,53.2,30.29,North,0,0.0,0.0,77,0.00,,CLR,0.00,VWS V14.00,2013-09-12 15:21:00,
2013-09-12 10:26:00,60.8,53.2,30.29,North,0,0.0,0.0,76,0.00,,CLR,0.00,VWS V14.00,2013-09-12 15:26:00,
2013-09-12 10:31:00,61.3,53.7,30.29,North,0,0.0,0.0,76,0.00,,CLR,0.00,VWS V14.00,2013-09-12 15:31:00,
2013-09-12 10:36:00,62.1,54.1,30.29,North,0,0.0,0.0,75,0.00,,CLR,0.00,VWS V14.00,2013-09-12 15:36:00,
2013-09-12 10:41:00,62.7,54.3,30.29,North,0,0.0,0.0,74,0.00,,CLR,0.00,VWS V14.00,2013-09-12 15:41:00,
2013-09-12 10:46:00,63.2,54.0,30.29,North,0,0.0,0.0,72,0.00,,CLR,0.00,VWS V14.00,2013-09-12 15:46:00,
2013-09-12 10:51:00,63.7,54.5,30.29,North,0,0.0,0.0,72,0.00,,CLR,0.00,VWS V14.00,2013-09-12 15:51:00,
2013-09-12 10:56:00,64.1,54.5,30.30,North,0,0.0,0.0,71,0.00,,CLR,0.00,VWS V14.00,2013-09-12 15:56:00,
2013-09-12 11:01:00,64.7,54.7,30.30,North,0,0.0,0.0,70,0.00,,CLR,0.00,VWS V14.00,2013-09-12 16:01:00,
2013-09-12 11:06:00,65.2,54.8,30.30,North,0,0.0,0.0,69,0.00,,CLR,0.00,VWS V14.00,2013-09-12 16:06:00,
2013-09-12 11:11:00,65.6,54.8,30.30,North,0,0.0,0.0,68,0.00,,CLR,0.00,VWS V14.00,2013-09-12 16:11:00,
2013-09-12 11:16:00,66.0,54.7,30.30,North,0,0.0,0.0,67,0.00,,CLR,0.00,VWS V14.00,2013-09-12 16:16:00,
2013-09-12 11:21:00,66.4,54.7,30.30,North,3,0.0,0.0,66,0.00,,CLR,0.00,VWS V14.00,2013-09-12 16:21:00,
2013-09-12 11:26:00,66.7,54.6,30.29,NNE,12,0.0,0.0,65,0.00,,CLR,0.00,VWS V14.00,2013-09-12 16:26:00,
2013-09-12 11:31:00,67.1,54.5,30.29,North,9,0.0,0.0,64,0.00,,CLR,0.00,VWS V14.00,2013-09-12 16:31:00,
2013-09-12 11:36:00,67.6,54.6,30.30,North,4,0.0,0.0,63,0.00,,CLR,0.00,VWS V14.00,2013-09-12 16:36:00,
2013-09-12 11:41:00,67.5,53.6,30.29,North,4,0.0,0.0,61,0.00,,CLR,0.00,VWS V14.00,2013-09-12 16:41:00,
2013-09-12 11:46:00,67.1,53.2,30.29,North,4,0.0,1.0,61,0.00,,CLR,0.00,VWS V14.00,2013-09-12 16:46:00,
2013-09-12 11:51:00,67.5,54.5,30.29,North,6,0.0,0.0,63,0.00,,CLR,0.00,VWS V14.00,2013-09-12 16:51:00,
2013-09-12 11:56:00,67.5,53.1,30.29,North,0,0.0,1.0,60,0.00,,CLR,0.00,VWS V14.00,2013-09-12 16:56:00,
2013-09-12 12:01:00,67.4,53.5,30.29,NNE,13,0.0,1.0,61,0.00,,SCT033,0.00,VWS V14.00,2013-09-12 17:01:00,
2013-09-12 12:06:00,67.6,54.1,30.29,NNE,12,0.0,1.0,62,0.00,,SCT033,0.00,VWS V14.00,2013-09-12 17:06:00,
2013-09-12 12:11:00,67.5,53.6,30.29,North,10,0.0,0.0,61,0.00,,SCT033,0.00,VWS V14.00,2013-09-12 17:11:00,
2013-09-12 12:16:00,67.2,53.3,30.29,North,10,0.0,0.0,61,0.00,,SCT033,0.00,VWS V14.00,2013-09-12 17:16:00,
2013-09-12 12:21:00,67.2,53.8,30.29,North,9,0.0,0.0,62,0.00,,SCT033,0.00,VWS V14.00,2013-09-12 17:21:00,
2013-09-12 12:26:00,67.5,53.6,30.29,North,355,0.0,0.0,61,0.00,,SCT033,0.00,VWS V14.00,2013-09-12 17:26:00,
2013-09-12 12:31:00,67.7,53.8,30.29,NNE,21,0.0,0.0,61,0.00,,SCT033,0.00,VWS V14.00,2013-09-12 17:31:00,
2013-09-12 12:36:00,68.0,53.6,30.29,NNW,342,0.0,0.0,60,0.00,,SCT033,0.00,VWS V14.00,2013-09-12 17:36:00,
2013-09-12 12:41:00,68.1,53.2,30.29,North,0,0.0,0.0,59,0.00,,SCT033,0.00,VWS V14.00,2013-09-12 17:41:00,
2013-09-12 12:46:00,68.0,53.6,30.29,North,0,0.0,1.0,60,0.00,,SCT033,0.00,VWS V14.00,2013-09-12 17:46:00,
2013-09-12 12:51:00,67.8,52.5,30.28,NNW,336,0.0,1.0,58,0.00,,SCT033,0.00,VWS V14.00,2013-09-12 17:51:00,
2013-09-12 12:56:00,68.3,53.9,30.28,NNW,345,0.0,1.0,60,0.00,,SCT033,0.00,VWS V14.00,2013-09-12 17:56:00,
2013-09-12 13:01:00,69.0,53.6,30.28,North,0,0.0,1.0,58,0.00,,BKN043,0.00,VWS V14.00,2013-09-12 18:01:00,
2013-09-12 13:06:00,69.3,53.0,30.28,NNW,348,0.0,1.0,56,0.00,,BKN043,0.00,VWS V14.00,2013-09-12 18:06:00,
2013-09-12 13:11:00,69.9,53.5,30.28,North,0,0.0,1.0,56,0.00,,BKN043,0.00,VWS V14.00,2013-09-12 18:11:00,
2013-09-12 13:16:00,69.7,52.8,30.28,North,0,8.0,14.0,55,0.00,,BKN043,0.00,VWS V14.00,2013-09-12 18:16:00,
2013-09-12 13:21:00,69.4,52.5,30.28,North,0,4.0,8.0,55,0.00,,BKN043,0.00,VWS V14.00,2013-09-12 18:21:00,
2013-09-12 13:26:00,69.3,53.0,30.28,North,353,0.0,8.0,56,0.00,,BKN043,0.00,VWS V14.00,2013-09-12 18:26:00,
2013-09-12 13:31:00,69.0,52.2,30.28,North,2,0.0,1.0,55,0.00,,BKN043,0.00,VWS V14.00,2013-09-12 18:31:00,
2013-09-12 13:36:00,68.8,52.5,30.28,North,7,0.0,1.0,56,0.00,,BKN043,0.00,VWS V14.00,2013-09-12 18:36:00,
2013-09-12 13:41:00,69.0,52.7,30.28,North,354,0.0,1.0,56,0.00,,BKN043,0.00,VWS V14.00,2013-09-12 18:41:00,
2013-09-12 13:46:00,69.1,51.8,30.28,North,355,0.0,1.0,54,0.00,,BKN043,0.00,VWS V14.00,2013-09-12 18:46:00,
2013-09-12 13:52:00,69.2,51.9,30.27,North,0,0.0,0.0,54,0.00,,BKN043,0.00,VWS V14.00,2013-09-12 18:52:00,
2013-09-12 13:57:00,69.1,51.8,30.27,NNE,19,0.0,1.0,54,0.00,,BKN043,0.00,VWS V14.00,2013-09-12 18:57:00,
2013-09-12 14:02:00,69.4,52.0,30.27,NNW,327,0.0,0.0,54,0.00,,OVC060,0.00,VWS V14.00,2013-09-12 19:02:00,
2013-09-12 14:07:00,70.1,52.2,30.27,NNW,327,0.0,12.0,53,0.00,,OVC060,0.00,VWS V14.00,2013-09-12 19:07:00,
2013-09-12 14:12:00,70.2,52.3,30.27,North,7,7.0,11.0,53,0.00,,OVC060,0.00,VWS V14.00,2013-09-12 19:12:00,
2013-09-12 14:17:00,70.1,51.7,30.27,North,10,0.0,11.0,52,0.00,,OVC060,0.00,VWS V14.00,2013-09-12 19:17:00,
2013-09-12 14:22:00,70.7,52.2,30.27,North,356,0.0,0.0,52,0.00,,OVC060,0.00,VWS V14.00,2013-09-12 19:22:00,
2013-09-12 14:27:00,70.9,51.9,30.27,North,349,0.0,0.0,51,0.00,,OVC060,0.00,VWS V14.00,2013-09-12 19:27:00,
2013-09-12 14:32:00,70.4,51.4,30.27,NNW,344,0.0,1.0,51,0.00,,OVC060,0.00,VWS V14.00,2013-09-12 19:32:00,
2013-09-12 14:37:00,70.0,52.1,30.26,NW,318,0.0,1.0,53,0.00,,OVC060,0.00,VWS V14.00,2013-09-12 19:37:00,
2013-09-12 14:42:00,70.3,52.4,30.26,North,0,0.0,1.0,53,0.00,,OVC060,0.00,VWS V14.00,2013-09-12 19:42:00,
2013-09-12 14:47:00,71.0,51.5,30.26,NNW,343,0.0,1.0,50,0.00,,OVC060,0.00,VWS V14.00,2013-09-12 19:47:00,
2013-09-12 14:52:00,70.8,51.3,30.26,North,3,4.0,11.0,50,0.00,,OVC060,0.00,VWS V14.00,2013-09-12 19:52:00,
2013-09-12 14:57:00,70.4,50.9,30.26,NNW,347,0.0,11.0,50,0.00,,OVC060,0.00,VWS V14.00,2013-09-12 19:57:00,
2013-09-12 15:02:00,70.9,51.3,30.26,North,0,3.0,12.0,50,0.00,,SCT060,0.00,VWS V14.00,2013-09-12 20:02:00,
2013-09-12 15:07:00,71.6,50.9,30.26,North,0,0.0,12.0,48,0.00,,SCT060,0.00,VWS V14.00,2013-09-12 20:07:00,
2013-09-12 15:12:00,71.4,50.7,30.25,NNW,327,5.0,10.0,48,0.00,,SCT060,0.00,VWS V14.00,2013-09-12 20:12:00,
2013-09-12 15:17:00,71.6,49.8,30.25,NW,322,0.0,13.0,46,0.00,,SCT060,0.00,VWS V14.00,2013-09-12 20:17:00,
2013-09-12 15:22:00,71.8,50.5,30.25,NNW,345,0.0,8.0,47,0.00,,SCT060,0.00,VWS V14.00,2013-09-12 20:22:00,
2013-09-12 15:27:00,72.2,50.9,30.25,NNW,345,8.0,13.0,47,0.00,,SCT060,0.00,VWS V14.00,2013-09-12 20:27:00,
2013-09-12 15:32:00,72.4,49.9,30.25,NW,308,0.0,10.0,45,0.00,,SCT060,0.00,VWS V14.00,2013-09-12 20:32:00,
2013-09-12 15:37:00,72.3,48.6,30.25,NNW,339,0.0,12.0,43,0.00,,SCT060,0.00,VWS V14.00,2013-09-12 20:37:00,
2013-09-12 15:42:00,72.3,49.8,30.25,WNW,284,0.0,0.0,45,0.00,,SCT060,0.00,VWS V14.00,2013-09-12 20:42:00,
2013-09-12 15:47:00,72.4,49.9,30.25,NW,305,0.0,1.0,45,0.00,,SCT060,0.00,VWS V14.00,2013-09-12 20:47:00,
2013-09-12 15:52:00,72.6,51.2,30.25,NW,323,0.0,5.0,47,0.00,,SCT060,0.00,VWS V14.00,2013-09-12 20:52:00,
2013-09-12 15:57:00,72.9,49.7,30.25,North,0,10.0,15.0,44,0.00,,SCT060,0.00,VWS V14.00,2013-09-12 20:57:00,
2013-09-12 16:02:00,72.2,49.1,30.25,North,0,1.0,11.0,44,0.00,,BKN060,0.00,VWS V14.00,2013-09-12 21:02:00,
2013-09-12 16:07:00,71.3,50.0,30.25,NNW,334,1.0,11.0,47,0.00,,BKN060,0.00,VWS V14.00,2013-09-12 21:07:00,
2013-09-12 16:12:00,71.3,50.0,30.25,NNW,332,0.0,1.0,47,0.00,,BKN060,0.00,VWS V14.00,2013-09-12 21:12:00,
2013-09-12 16:17:00,71.6,49.2,30.25,NW,309,0.0,1.0,45,0.00,,BKN060,0.00,VWS V14.00,2013-09-12 21:17:00,
2013-09-12 16:22:00,71.7,49.2,30.24,NNW,344,0.0,7.0,45,0.00,,BKN060,0.00,VWS V14.00,2013-09-12 21:22:00,
2013-09-12 16:27:00,71.8,48.1,30.24,NNW,346,0.0,7.0,43,0.00,,BKN060,0.00,VWS V14.00,2013-09-12 21:27:00,
2013-09-12 16:32:00,72.0,48.3,30.24,North,0,0.0,1.0,43,0.00,,BKN060,0.00,VWS V14.00,2013-09-12 21:32:00,
2013-09-12 16:37:00,72.2,48.5,30.24,North,354,0.0,1.0,43,0.00,,BKN060,0.00,VWS V14.00,2013-09-12 21:37:00,
2013-09-12 16:42:00,72.5,48.8,30.24,North,1,7.0,13.0,43,0.00,,BKN060,0.00,VWS V14.00,2013-09-12 21:42:00,
2013-09-12 16:47:00,72.8,49.0,30.24,North,0,0.0,13.0,43,0.00,,BKN060,0.00,VWS V14.00,2013-09-12 21:47:00,
2013-09-12 16:52:00,72.8,49.0,30.24,NNE,15,10.0,13.0,43,0.00,,BKN060,0.00,VWS V14.00,2013-09-12 21:52:00,
2013-09-12 16:57:00,71.9,50.0,30.24,North,9,8.0,13.0,46,0.00,,BKN060,0.00,VWS V14.00,2013-09-12 21:57:00,
2013-09-12 17:02:00,71.7,49.2,30.24,NNW,346,0.0,9.0,45,0.00,,FEW050,0.00,VWS V14.00,2013-09-12 22:02:00,
2013-09-12 17:08:00,71.7,48.7,30.23,NW,324,0.0,9.0,44,0.00,,FEW050,0.00,VWS V14.00,2013-09-12 22:08:00,
2013-09-12 17:13:00,71.8,48.7,30.23,NNW,342,7.0,9.0,44,0.00,,FEW050,0.00,VWS V14.00,2013-09-12 22:13:00,
2013-09-12 17:18:00,71.8,48.1,30.23,North,353,0.0,11.0,43,0.00,,FEW050,0.00,VWS V14.00,2013-09-12 22:18:00,
2013-09-12 17:23:00,71.8,47.5,30.23,North,350,0.0,8.0,42,0.00,,FEW050,0.00,VWS V14.00,2013-09-12 22:23:00,
2013-09-12 17:28:00,71.8,47.5,30.23,NNW,341,0.0,8.0,42,0.00,,FEW050,0.00,VWS V14.00,2013-09-12 22:28:00,
2013-09-12 17:33:00,71.9,48.2,30.23,North,0,0.0,1.0,43,0.00,,FEW050,0.00,VWS V14.00,2013-09-12 22:33:00,
2013-09-12 17:38:00,72.1,48.4,30.23,NW,322,0.0,1.0,43,0.00,,FEW050,0.00,VWS V14.00,2013-09-12 22:38:00,
2013-09-12 17:43:00,72.2,47.9,30.23,NNW,338,0.0,0.0,42,0.00,,FEW050,0.00,VWS V14.00,2013-09-12 22:43:00,
2013-09-12 17:48:00,72.1,47.1,30.23,North,0,0.0,1.0,41,0.00,,FEW050,0.00,VWS V14.00,2013-09-12 22:48:00,
2013-09-12 17:53:00,71.6,47.3,30.23,North,0,4.0,11.0,42,0.00,,FEW050,0.00,VWS V14.00,2013-09-12 22:53:00,
2013-09-12 17:58:00,71.2,47.6,30.23,North,4,5.0,12.0,43,0.00,,FEW050,0.00,VWS V14.00,2013-09-12 22:58:00,
2013-09-12 18:03:00,71.0,47.4,30.23,North,0,0.0,1.0,43,0.00,,SCT055,0.00,VWS V14.00,2013-09-12 23:03:00,
2013-09-12 18:08:00,70.9,47.3,30.23,North,0,6.0,10.0,43,0.00,,SCT055,0.00,VWS V14.00,2013-09-12 23:08:00,
2013-09-12 18:13:00,70.7,47.7,30.23,North,358,0.0,2.0,44,0.00,,SCT055,0.00,VWS V14.00,2013-09-12 23:13:00,
2013-09-12 18:18:00,70.7,47.7,30.23,North,350,0.0,2.0,44,0.00,,SCT055,0.00,VWS V14.00,2013-09-12 23:18:00,
2013-09-12 18:23:00,70.2,47.9,30.23,North,350,0.0,0.0,45,0.00,,SCT055,0.00,VWS V14.00,2013-09-12 23:23:00,
2013-09-12 18:28:00,69.6,47.9,30.23,North,350,0.0,0.0,46,0.00,,SCT055,0.00,VWS V14.00,2013-09-12 23:28:00,
2013-09-12 18:33:00,69.3,48.8,30.23,North,349,0.0,0.0,48,0.00,,SCT055,0.00,VWS V14.00,2013-09-12 23:33:00,
2013-09-12 18:38:00,69.6,48.5,30.23,North,349,0.0,0.0,47,0.00,,SCT055,0.00,VWS V14.00,2013-09-12 23:38:00,
2013-09-12 18:43:00,69.8,48.1,30.23,NW,323,0.0,0.0,46,0.00,,SCT055,0.00,VWS V14.00,2013-09-12 23:43:00,
2013-09-12 18:48:00,69.6,48.5,30.23,NNW,338,0.0,0.0,47,0.00,,SCT055,0.00,VWS V14.00,2013-09-12 23:48:00,
2013-09-12 18:53:00,69.3,48.2,30.23,NNW,338,0.0,0.0,47,0.00,,SCT055,0.00,VWS V14.00,2013-09-12 23:53:00,
2013-09-12 18:58:00,68.8,48.9,30.23,NNW,338,0.0,0.0,49,0.00,,SCT055,0.00,VWS V14.00,2013-09-12 23:58:00,
2013-09-12 19:03:00,68.4,48.0,30.23,NNW,338,0.0,0.0,48,0.00,,CLR,0.00,VWS V14.00,2013-09-13 00:03:00,
2013-09-12 19:08:00,67.9,48.1,30.23,NNW,338,0.0,0.0,49,0.00,,CLR,0.00,VWS V14.00,2013-09-13 00:08:00,
2013-09-12 19:13:00,67.5,48.8,30.23,NNW,338,0.0,0.0,51,0.00,,CLR,0.00,VWS V14.00,2013-09-13 00:13:00,
2013-09-12 19:18:00,67.1,48.4,30.22,NNW,338,0.0,0.0,51,0.00,,CLR,0.00,VWS V14.00,2013-09-13 00:18:00,
2013-09-12 19:23:00,66.8,49.1,30.22,NNW,338,0.0,0.0,53,0.00,,CLR,0.00,VWS V14.00,2013-09-13 00:23:00,
2013-09-12 19:28:00,66.3,48.7,30.22,NNW,338,0.0,0.0,53,0.00,,CLR,0.00,VWS V14.00,2013-09-13 00:28:00,
2013-09-12 19:33:00,66.0,48.9,30.22,NNW,338,0.0,0.0,54,0.00,,CLR,0.00,VWS V14.00,2013-09-13 00:33:00,
2013-09-12 19:38:00,65.6,49.0,30.23,NNW,338,0.0,0.0,55,0.00,,CLR,0.00,VWS V14.00,2013-09-13 00:38:00,
2013-09-12 19:43:00,65.2,49.1,30.23,NNW,338,0.0,0.0,56,0.00,,CLR,0.00,VWS V14.00,2013-09-13 00:43:00,
2013-09-12 19:48:00,64.8,49.2,30.23,NNW,338,0.0,0.0,57,0.00,,CLR,0.00,VWS V14.00,2013-09-13 00:48:00,
2013-09-12 19:53:00,64.3,49.2,30.23,NNW,338,0.0,0.0,58,0.00,,CLR,0.00,VWS V14.00,2013-09-13 00:53:00,
2013-09-12 19:58:00,63.8,49.7,30.23,NNW,338,0.0,0.0,60,0.00,,CLR,0.00,VWS V14.00,2013-09-13 00:58:00,
2013-09-12 20:03:00,63.4,49.7,30.23,NNW,338,0.0,0.0,61,0.00,,CLR,0.00,VWS V14.00,2013-09-13 01:03:00,
2013-09-12 20:08:00,62.8,49.6,30.23,NNW,338,0.0,0.0,62,0.00,,CLR,0.00,VWS V14.00,2013-09-13 01:08:00,
2013-09-12 20:13:00,62.3,50.0,30.23,NNW,338,0.0,0.0,64,0.00,,CLR,0.00,VWS V14.00,2013-09-13 01:13:00,
2013-09-12 20:19:00,61.8,49.9,30.23,NNW,338,0.0,0.0,65,0.00,,CLR,0.00,VWS V14.00,2013-09-13 01:19:00,
2013-09-12 20:24:00,61.4,50.0,30.23,NNW,338,0.0,0.0,66,0.00,,CLR,0.00,VWS V14.00,2013-09-13 01:24:00,
2013-09-12 20:29:00,60.9,49.1,30.23,NNW,338,0.0,0.0,65,0.00,,CLR,0.00,VWS V14.00,2013-09-13 01:29:00,
2013-09-12 20:33:00,60.5,49.1,30.23,NNW,338,0.0,0.0,66,0.00,,CLR,0.00,VWS V14.00,2013-09-13 01:33:00,
2013-09-12 20:39:00,60.2,49.2,30.23,NNW,338,0.0,0.0,67,0.00,,CLR,0.00,VWS V14.00,2013-09-13 01:39:00,
2013-09-12 20:44:00,59.9,49.3,30.23,NNW,338,0.0,0.0,68,0.00,,CLR,0.00,VWS V14.00,2013-09-13 01:44:00,
2013-09-12 20:49:00,59.6,49.0,30.23,NNW,338,0.0,0.0,68,0.00,,CLR,0.00,VWS V14.00,2013-09-13 01:49:00,
2013-09-12 20:54:00,59.3,49.1,30.23,NNW,338,0.0,0.0,69,0.00,,CLR,0.00,VWS V14.00,2013-09-13 01:54:00,
2013-09-12 20:59:00,59.0,49.2,30.23,NNW,338,0.0,0.0,70,0.00,,CLR,0.00,VWS V14.00,2013-09-13 01:59:00,
2013-09-12 21:04:00,58.7,49.3,30.23,NNW,338,0.0,0.0,71,0.00,,CLR,0.00,VWS V14.00,2013-09-13 02:04:00,
2013-09-12 21:09:00,58.3,49.3,30.23,NNW,338,0.0,0.0,72,0.00,,CLR,0.00,VWS V14.00,2013-09-13 02:09:00,
2013-09-12 21:14:00,58.0,49.0,30.23,NNW,338,0.0,0.0,72,0.00,,CLR,0.00,VWS V14.00,2013-09-13 02:14:00,
2013-09-12 21:19:00,57.6,48.7,30.23,NNW,338,0.0,0.0,72,0.00,,CLR,0.00,VWS V14.00,2013-09-13 02:19:00,
2013-09-12 21:24:00,57.3,48.7,30.23,NNW,338,0.0,0.0,73,0.00,,CLR,0.00,VWS V14.00,2013-09-13 02:24:00,
2013-09-12 21:29:00,56.9,48.7,30.23,NNW,338,0.0,0.0,74,0.00,,CLR,0.00,VWS V14.00,2013-09-13 02:29:00,
2013-09-12 21:34:00,56.6,48.4,30.24,NNW,338,0.0,0.0,74,0.00,,CLR,0.00,VWS V14.00,2013-09-13 02:34:00,
2013-09-12 21:39:00,56.3,48.5,30.24,NNW,338,0.0,0.0,75,0.00,,CLR,0.00,VWS V14.00,2013-09-13 02:39:00,
2013-09-12 21:44:00,56.0,48.2,30.24,NNW,338,0.0,0.0,75,0.00,,CLR,0.00,VWS V14.00,2013-09-13 02:44:00,
2013-09-12 21:49:00,55.8,48.4,30.23,NNW,338,0.0,0.0,76,0.00,,CLR,0.00,VWS V14.00,2013-09-13 02:49:00,
2013-09-12 21:54:00,55.5,48.4,30.24,NNW,338,0.0,0.0,77,0.00,,CLR,0.00,VWS V14.00,2013-09-13 02:54:00,
2013-09-12 21:59:00,55.6,48.9,30.24,NNW,338,0.0,0.0,78,0.00,,CLR,0.00,VWS V14.00,2013-09-13 02:59:00,
2013-09-12 22:04:00,55.6,48.9,30.24,NNW,338,0.0,0.0,78,0.00,,CLR,0.00,VWS V14.00,2013-09-13 03:04:00,
2013-09-12 22:09:00,55.5,48.8,30.24,NNW,338,0.0,0.0,78,0.00,,CLR,0.00,VWS V14.00,2013-09-13 03:09:00,
2013-09-12 22:14:00,55.4,48.7,30.24,NNW,338,0.0,0.0,78,0.00,,CLR,0.00,VWS V14.00,2013-09-13 03:14:00,
2013-09-12 22:19:00,55.3,48.9,30.24,NNW,338,0.0,0.0,79,0.00,,CLR,0.00,VWS V14.00,2013-09-13 03:19:00,
2013-09-12 22:24:00,55.1,48.4,30.24,NNW,338,0.0,0.0,78,0.00,,CLR,0.00,VWS V14.00,2013-09-13 03:24:00,
2013-09-12 22:29:00,54.9,48.2,30.24,NNW,338,0.0,0.0,78,0.00,,CLR,0.00,VWS V14.00,2013-09-13 03:29:00,
2013-09-12 22:34:00,54.7,48.3,30.24,NNW,338,0.0,0.0,79,0.00,,CLR,0.00,VWS V14.00,2013-09-13 03:34:00,
2013-09-12 22:39:00,54.5,48.1,30.24,NNW,338,0.0,0.0,79,0.00,,CLR,0.00,VWS V14.00,2013-09-13 03:39:00,
2013-09-12 22:44:00,54.3,48.3,30.24,NNW,338,0.0,0.0,80,0.00,,CLR,0.00,VWS V14.00,2013-09-13 03:44:00,
2013-09-12 22:49:00,54.1,48.1,30.24,NNW,338,0.0,0.0,80,0.00,,CLR,0.00,VWS V14.00,2013-09-13 03:49:00,
2013-09-12 22:54:00,54.0,48.0,30.24,NNW,338,0.0,0.0,80,0.00,,CLR,0.00,VWS V14.00,2013-09-13 03:54:00,
2013-09-12 22:59:00,53.8,47.8,30.24,NNW,338,0.0,0.0,80,0.00,,CLR,0.00,VWS V14.00,2013-09-13 03:59:00,
2013-09-12 23:01:00,53.8,47.8,30.24,NNW,338,0.0,0.0,80,0.00,,CLR,0.00,VWS V14.00,2013-09-13 04:01:00,
2013-09-12 23:03:00,53.7,47.7,30.24,NNW,338,0.0,0.0,80,0.00,,CLR,0.00,VWS V14.00,2013-09-13 04:03:00,
2013-09-12 23:06:00,53.6,47.6,30.24,NNW,338,0.0,0.0,80,0.00,,CLR,0.00,VWS V14.00,2013-09-13 04:06:00,
2013-09-12 23:11:00,53.4,47.4,30.24,NNW,338,0.0,0.0,80,0.00,,CLR,0.00,VWS V14.00,2013-09-13 04:11:00,
2013-09-12 23:16:00,53.2,47.5,30.24,NNW,338,0.0,0.0,81,0.00,,CLR,0.00,VWS V14.00,2013-09-13 04:16:00,
2013-09-12 23:21:00,53.0,47.3,30.24,NNW,338,0.0,0.0,81,0.00,,CLR,0.00,VWS V14.00,2013-09-13 04:21:00,
2013-09-12 23:26:00,52.9,47.2,30.24,NNW,338,0.0,0.0,81,0.00,,CLR,0.00,VWS V14.00,2013-09-13 04:26:00,
2013-09-12 23:31:00,52.8,47.5,30.24,NNW,338,0.0,0.0,82,0.00,,CLR,0.00,VWS V14.00,2013-09-13 04:31:00,
2013-09-12 23:36:00,52.6,47.3,30.24,NNW,338,0.0,0.0,82,0.00,,CLR,0.00,VWS V14.00,2013-09-13 04:36:00,
2013-09-12 23:41:00,52.5,47.2,30.24,NNW,338,0.0,0.0,82,0.00,,CLR,0.00,VWS V14.00,2013-09-13 04:41:00,
2013-09-12 23:46:00,52.2,46.9,30.24,NNW,338,0.0,0.0,82,0.00,,CLR,0.00,VWS V14.00,2013-09-13 04:46:00,
2013-09-12 23:51:00,52.2,47.2,30.24,NNW,338,0.0,0.0,83,0.00,,CLR,0.00,VWS V14.00,2013-09-13 04:51:00,
2013-09-12 23:56:00,52.1,47.1,30.24,NNW,338,0.0,0.0,83,0.00,,CLR,0.00,VWS V14.00,2013-09-13 04:56:00,